Tracking 31028 objects as of 17-Jul-2025
HD Live streaming from Space Station
objects crossing your sky now

COSMOS 510

Track COSMOS 510 now!
10-day predictions
COSMOS 510 is classified as:


NORAD ID: 6123
Int'l Code: 1972-057G
Perigee: 1,502.6 km
Apogee: 1,515.9 km
Inclination: 74.0 °
Period: 116.0 minutes
Semi major axis: 7880 km
RCS: 0.6741 m2 (medium)
Launch date: July 20, 1972
Source: Commonwealth of Independent States (former USSR) (CIS)
Launch site: PLESETSK MISSILE AND SPACE COMPLEX (PKMTR)
Your satellite tracking list
Your tracking list is empty




NASA's NSSDC Master Catalog

Two Line Element Set (TLE):
1 06123U 72057G   25198.29829295 -.00000016  00000-0 -66760-5 0  9993
2 06123  74.0271 129.3246 0008457  90.1334  26.8714 12.41068878400766
Source of the keplerian elements: AFSPC